Wind_Speed
36 35 35 35 36 36 36 36 36 36 36 36 37 37 36 36 36 35 35 35 35 35 36 36 36 36 37 37 37 37 37 38 39 39 39 39 39 39 40 41 41 41 41
36 36 36 36 36 36 37 37 37 37 37 37 37 37 37 36 36 36 36 36 36 36 36 37 37 38 39 39 38 38 38 39 39 40 39 39 39 40 41 41 41 41 41
36 36 36 36 36 36 37 37 37 37 37 37 36 36 36 36 37 37 36 36 36 36 37 38 37 38 38 39 39 39 39 39 40 40 40 40 40 40 40 41 41 41 41
36 36 36 36 36 36 37 37 38 39 38 38 38 37 37 37 37 38 37 36 36 35 36 37 37 38 38 38 38 39 39 39 40 40 40 41 41 41 40 41 41 42 42
35 35 35 35 35 35 36 37 37 39 39 39 39 38 38 38 38 37 37 37 37 37 37 36 37 37 38 38 39 39 40 39 40 40 41 41 42 42 41 41 41 42 43
34 34 34 35 35 35 36 36 37 37 38 38 39 39 39 39 39 38 38 38 38 38 38 37 37 37 38 39 40 41 40 40 40 40 41 42 42 42 42 42 41 41 42
33 33 33 34 34 35 35 35 36 36 37 37 38 39 39 39 39 40 39 39 39 39 39 39 39 38 38 39 39 40 40 40 39 39 40 40 41 41 42 42 41 42 42
32 32 32 33 34 34 34 35 35 36 36 37 37 38 38 39 40 40 40 39 39 39 39 40 40 40 39 40 40 40 40 40 39 39 39 40 41 41 41 41 41 41 42
32 32 32 33 33 33 34 34 35 35 35 36 36 37 38 39 39 39 39 39 39 39 39 40 40 40 40 41 40 39 39 39 39 39 40 41 41 41 41 41 41 42 42
31 31 31 32 33 33 34 35 35 35 35 35 36 36 37 38 38 38 38 38 38 38 39 40 40 41 40 40 40 39 39 39 39 39 39 39 40 40 41 42 42 42 42
29 30 31 31 32 33 34 35 35 35 36 35 35 36 36 37 38 38 39 39 39 39 39 40 40 40 40 40 40 40 40 40 40 40 40 40 40 40 41 41 41 42 42
29 29 30 31 32 33 33 34 35 35 35 36 36 36 36 36 37 39 39 39 40 40 40 40 40 39 40 41 41 41 41 41 41 41 41 41 42 42 42 42 42 42 42
29 29 30 31 32 32 33 34 34 34 35 35 36 36 36 37 37 38 39 39 40 40 41 41 40 40 40 41 42 42 42 42 42 42 42 42 43 43 43 43 42 42 41
30 30 31 31 31 32 33 34 34 34 35 35 35 36 36 37 38 38 39 40 40 40 40 40 40 41 41 41 41 41 41 42 42 42 43 43 43 43 43 42 42 42 42
31 31 31 32 32 33 34 34 34 35 35 36 36 36 37 37 38 38 38 38 39 39 38 38 39 39 40 40 41 41 42 42 43 43 43 43 42 41 41 41 41 42 41
30 31 32 32 33 34 34 34 34 35 35 36 36 36 37 37 37 37 37 37 37 38 37 37 37 37 38 39 40 40 41 41 42 42 41 41 40 40 40 40 40 39 39
31 32 33 32 33 33 34 34 34 35 35 35 36 36 36 36 36 35 35 36 36 37 37 37 37 37 38 39 40 41 41 41 41 40 39 39 39 39 39 39 39 38 38
30 31 32 32 32 32 32 33 34 34 34 35 36 35 35 35 35 35 35 36 36 37 37 37 37 37 37 38 38 39 40 40 39 38 38 38 38 38 38 38 38 38 38
30 29 30 30 31 31 31 32 33 34 35 35 35 35 35 35 35 35 35 35 35 36 36 36 36 37 37 38 39 39 39 38 38 38 37 37 37 37 37 37 37 37 37
29 29 29 29 29 30 31 31 32 33 34 34 34 35 35 35 35 35 35 35 34 35 36 36 37 37 38 38 39 39 38 37 37 37 37 36 37 37 37 37 36 35 35
28 29 29 28 28 29 30 31 31 32 33 34 34 34 34 35 34 34 34 35 35 35 35 36 37 37 38 38 38 38 37 37 36 35 35 36 36 36 36 36 35 35 34
28 29 29 29 29 29 30 30 30 31 32 33 33 34 34 35 34 33 33 34 34 35 35 36 37 37 37 37 37 37 37 37 36 35 35 35 35 35 35 35 35 35 34
28 29 29 29 29 29 29 29 29 30 30 31 32 33 34 34 33 33 33 34 34 35 35 35 36 36 36 36 36 36 36 36 36 36 35 35 35 35 34 34 34 34 34
27 28 29 29 30 30 30 30 30 30 30 30 31 32 32 33 33 34 34 34 34 34 35 35 36 36 36 36 36 36 36 36 35 35 34 34 35 35 34 33 33 33 32
28 28 28 29 30 31 31 31 31 31 30 30 30 31 31 32 32 33 33 33 34 34 34 34 35 35 35 35 36 35 35 34 33 33 32 32 32 32 31 30 30 31 31
27 27 28 28 29 30 30 31 31 31 30 30 30 31 31 32 31 31 31 31 32 33 33 33 33 33 33 33 33 32 32 31 30 30 29 29 29 28 28 28 28 28 28
Wind_Direction
251 251 252 252 252 252 252 252 253 254 254 255 257 258 257 256 256 258 259 259 260 261 261 261 263 265 266 268 269 270 271 272 272 273 274 275 276 277 277 278 278 279 278
252 252 252 252 252 252 253 253 253 254 255 257 257 257 256 255 256 258 260 261 261 262 262 262 264 265 267 269 270 271 273 274 274 274 274 274 275 276 277 278 278 279 280
253 253 252 252 252 252 252 252 253 254 255 255 256 256 255 255 256 257 258 260 261 263 264 263 264 266 267 269 270 272 274 275 275 275 274 275 275 276 276 278 278 279 280
254 255 254 253 254 254 253 253 253 254 255 254 255 256 256 256 257 257 258 260 261 262 263 263 264 265 267 269 271 272 275 276 275 274 274 275 276 276 276 277 278 278 279
254 254 254 254 254 254 254 255 254 254 255 255 254 255 255 256 257 258 258 259 260 261 263 263 264 265 266 269 270 271 274 276 276 275 275 275 276 276 276 277 278 278 278
253 254 254 253 254 254 255 255 255 254 255 255 255 254 255 255 256 258 258 258 260 261 263 263 264 265 267 269 270 272 274 276 276 276 276 276 276 275 276 277 277 278 279
253 253 253 254 254 254 254 255 255 255 255 255 255 255 255 256 257 257 258 258 260 261 262 263 264 265 267 269 270 273 274 274 275 276 277 277 277 277 278 278 278 279 280
253 253 253 253 253 254 254 254 255 255 256 256 256 256 256 256 256 257 258 260 260 260 261 263 265 266 268 270 271 273 274 274 275 276 276 276 278 279 279 280 280 281 281
253 253 253 253 252 252 253 253 254 255 256 256 257 256 256 255 255 258 258 259 259 260 261 263 265 266 268 271 272 274 275 275 276 276 276 277 278 279 280 281 282 283 283
252 253 254 253 252 253 253 253 254 255 256 257 257 257 257 256 256 258 259 260 261 262 263 265 266 267 268 271 272 273 274 274 276 277 277 278 278 280 280 281 283 284 284
253 253 254 254 254 254 254 255 255 256 256 257 257 258 259 259 257 258 259 261 263 264 265 266 267 268 268 269 271 272 273 274 276 278 278 278 279 280 281 282 283 284 284
254 254 254 254 254 255 255 256 256 257 257 257 258 259 259 260 260 259 260 261 263 265 266 267 267 268 268 270 272 273 272 274 276 277 278 279 279 279 280 280 282 283 283
257 256 256 256 256 256 256 257 257 258 259 259 260 260 260 261 261 261 261 262 264 266 267 268 268 268 269 271 273 274 274 274 275 276 277 279 280 280 280 280 281 282 282
259 257 257 258 257 257 256 257 258 258 258 259 261 261 261 261 262 262 262 263 265 267 269 269 269 269 270 272 274 275 275 274 276 277 278 279 279 280 280 280 280 281 281
258 258 258 257 258 258 258 257 258 258 259 260 261 262 262 262 262 262 263 264 266 267 269 270 270 270 270 272 274 275 275 275 277 278 279 279 279 280 280 281 281 281 281
259 259 257 257 258 259 258 258 258 258 259 260 261 262 263 264 264 262 263 265 266 268 270 270 270 270 271 272 274 275 276 277 278 278 278 279 280 280 281 282 282 282 281
261 261 261 260 260 259 258 258 258 258 259 260 261 261 262 262 263 262 263 264 266 268 270 270 270 270 272 273 275 276 278 278 277 277 277 278 279 280 281 281 281 281 281
263 263 262 262 262 262 261 260 259 259 259 260 261 261 261 261 262 263 263 265 267 268 269 269 270 271 272 275 276 278 279 277 277 277 278 279 280 281 282 281 281 281 282
264 264 262 261 262 263 262 262 260 260 261 261 261 261 261 261 262 263 264 266 268 269 269 270 270 272 274 275 278 279 279 277 277 279 280 280 280 281 281 281 281 282 282
263 264 265 264 262 263 264 263 262 262 261 260 261 262 262 263 264 264 264 266 268 269 270 271 272 273 275 277 279 279 278 278 278 279 280 281 281 281 281 281 282 282 282
264 265 266 265 264 265 266 265 264 263 262 260 260 262 263 264 265 265 266 267 268 269 270 271 273 274 276 276 277 278 278 278 277 278 280 281 282 282 281 281 281 281 281
267 267 268 267 266 267 267 266 266 264 263 262 262 263 264 264 264 266 268 269 270 270 272 273 274 276 277 277 278 278 278 277 277 278 279 280 280 281 281 280 280 281 281
268 269 269 269 268 268 267 266 267 266 265 265 264 265 265 265 265 267 269 271 272 273 273 275 275 276 276 277 279 279 277 275 276 277 278 279 280 280 281 280 280 281 281
272 271 271 269 268 269 269 267 267 267 267 267 266 265 264 266 267 268 270 272 273 274 275 275 276 276 277 278 279 278 276 275 275 276 278 280 281 281 281 280 280 280 280
273 273 272 271 270 270 270 268 267 267 268 267 266 265 266 269 270 271 272 273 274 275 276 276 276 277 277 277 278 278 277 276 276 277 278 280 282 282 282 282 281 280 279
274 274 273 273 271 269 268 268 268 267 268 268 268 268 268 269 271 271 272 273 275 275 276 276 276 277 277 277 278 278 277 276 276 277 278 280 282 282 282 283 283 283 281
Height
5698 5699 5701 5702 5704 5706 5708 5710 5712 5714 5716 5717 5718 5720 5721 5723 5724 5726 5727 5729 5730 5732 5733 5734 5736 5736 5737 5738 5739 5739 5739 5739 5738 5738 5738 5738 5737 5736 5735 5734 5733 5732 5731
5688 5690 5692 5694 5696 5698 5700 5702 5704 5706 5707 5709 5710 5711 5713 5715 5717 5718 5719 5720 5722 5723 5725 5726 5727 5727 5728 5729 5730 5730 5730 5730 5729 5729 5728 5729 5729 5727 5726 5725 5724 5723 5722
5679 5681 5683 5685 5687 5689 5691 5693 5695 5697 5699 5700 5702 5703 5705 5707 5709 5710 5711 5712 5713 5715 5716 5717 5718 5719 5720 5720 5721 5721 5721 5721 5720 5719 5719 5718 5719 5718 5717 5715 5714 5713 5712
5670 5672 5674 5676 5678 5680 5682 5683 5685 5687 5689 5691 5693 5695 5697 5699 5700 5701 5702 5704 5705 5706 5707 5709 5709 5710 5711 5711 5711 5711 5711 5710 5710 5709 5709 5708 5708 5707 5707 5706 5704 5703 5702
5661 5663 5664 5666 5668 5670 5672 5674 5676 5678 5680 5682 5684 5686 5688 5690 5691 5692 5694 5695 5696 5698 5699 5700 5700 5701 5701 5701 5701 5701 5701 5701 5700 5700 5699 5698 5697 5697 5696 5696 5695 5693 5692
5651 5653 5655 5657 5659 5661 5663 5665 5667 5668 5670 5672 5674 5677 5679 5680 5682 5683 5685 5686 5687 5689 5690 5690 5691 5692 5692 5692 5692 5692 5692 5691 5690 5689 5689 5688 5687 5686 5685 5685 5684 5683 5681
5642 5645 5646 5649 5651 5652 5654 5656 5658 5660 5662 5663 5665 5667 5669 5671 5673 5674 5676 5677 5678 5679 5680 5681 5682 5682 5682 5683 5683 5683 5682 5681 5680 5679 5679 5677 5677 5676 5675 5674 5673 5672 5671
5633 5635 5638 5640 5642 5644 5646 5648 5650 5652 5653 5655 5656 5658 5660 5661 5663 5665 5666 5668 5669 5670 5671 5672 5672 5673 5673 5673 5673 5672 5672 5672 5671 5670 5669 5668 5667 5665 5664 5664 5662 5661 5660
5625 5627 5629 5631 5633 5635 5637 5639 5641 5643 5645 5646 5647 5649 5650 5652 5653 5655 5656 5658 5659 5660 5661 5662 5662 5663 5663 5663 5663 5662 5662 5661 5661 5660 5659 5658 5656 5655 5654 5652 5651 5650 5649
5616 5618 5620 5622 5624 5626 5628 5630 5632 5634 5636 5637 5638 5640 5641 5642 5644 5646 5647 5648 5649 5650 5651 5652 5652 5653 5653 5653 5653 5652 5652 5651 5650 5649 5649 5647 5646 5645 5643 5642 5640 5639 5637
5608 5610 5612 5613 5615 5617 5619 5621 5623 5625 5627 5628 5629 5631 5632 5633 5635 5636 5638 5639 5639 5640 5641 5642 5642 5642 5643 5643 5642 5642 5641 5641 5640 5639 5638 5637 5636 5634 5633 5631 5630 5628 5626
5600 5602 5603 5605 5607 5608 5610 5613 5615 5616 5618 5619 5620 5622 5623 5624 5625 5627 5628 5629 5630 5630 5631 5631 5632 5632 5632 5632 5632 5631 5631 5630 5629 5628 5627 5626 5625 5624 5622 5621 5619 5617 5615
5592 5593 5595 5596 5598 5600 5602 5604 5605 5607 5608 5610 5611 5612 5614 5615 5616 5617 5618 5619 5619 5620 5620 5621 5621 5621 5621 5622 5621 5620 5620 5619 5618 5617 5617 5615 5614 5613 5611 5609 5608 5606 5604
5584 5585 5587 5588 5590 5591 5593 5595 5596 5597 5599 5600 5601 5603 5604 5605 5606 5607 5608 5609 5609 5609 5610 5610 5610 5611 5611 5611 5610 5609 5609 5608 5607 5606 5605 5604 5603 5601 5599 5598 5596 5594 5593
5576 5577 5578 5580 5581 5583 5584 5585 5587 5588 5589 5591 5592 5593 5594 5595 5596 5597 5598 5598 5599 5599 5599 5600 5600 5600 5600 5600 5599 5599 5597 5597 5596 5595 5594 5592 5591 5589 5588 5586 5584 5583 5581
5567 5568 5569 5571 5572 5574 5575 5576 5577 5578 5580 5581 5582 5583 5584 5585 5586 5587 5587 5588 5589 5589 5589 5589 5589 5589 5589 5589 5588 5587 5587 5586 5585 5584 5583 5581 5580 5579 5577 5575 5573 5571 5570
5559 5560 5561 5562 5563 5564 5565 5566 5567 5569 5570 5571 5572 5573 5574 5575 5576 5576 5577 5578 5578 5579 5579 5579 5579 5579 5579 5578 5577 5576 5575 5575 5574 5573 5572 5571 5569 5568 5566 5564 5562 5561 5559
5550 5551 5552 5553 5553 5554 5555 5557 5558 5559 5560 5561 5562 5563 5564 5565 5566 5566 5567 5568 5568 5569 5569 5569 5569 5569 5568 5568 5567 5565 5565 5564 5563 5562 5561 5560 5559 5557 5555 5554 5552 5550 5549
5541 5542 5543 5544 5545 5545 5546 5547 5548 5549 5550 5551 5552 5553 5554 5555 5556 5557 5557 5558 5558 5559 5559 5559 5559 5559 5558 5557 5556 5555 5554 5553 5552 5551 5550 5549 5548 5546 5544 5543 5542 5540 5538
5533 5533 5534 5535 5536 5536 5537 5538 5539 5539 5540 5541 5542 5543 5544 5545 5546 5547 5547 5548 5548 5548 5549 5549 5549 5548 5547 5546 5545 5544 5543 5543 5542 5541 5540 5538 5537 5535 5533 5532 5531 5530 5528
5524 5525 5525 5526 5527 5527 5528 5529 5529 5530 5531 5532 5533 5534 5535 5535 5536 5537 5537 5538 5538 5538 5539 5539 5538 5538 5537 5536 5535 5534 5532 5532 5531 5530 5529 5528 5526 5524 5523 5521 5520 5519 5518
5516 5516 5517 5518 5518 5518 5519 5520 5520 5521 5521 5522 5523 5524 5525 5526 5526 5527 5528 5528 5528 5528 5528 5528 5528 5527 5526 5525 5524 5523 5522 5521 5520 5520 5519 5517 5516 5514 5512 5511 5510 5508 5507
5508 5508 5508 5509 5509 5509 5510 5511 5511 5512 5512 5513 5514 5515 5515 5516 5517 5517 5518 5518 5518 5518 5518 5518 5517 5517 5516 5515 5514 5513 5511 5510 5510 5509 5508 5506 5505 5504 5502 5501 5499 5498 5497
5499 5499 5499 5500 5500 5501 5501 5501 5502 5502 5503 5503 5504 5505 5505 5506 5507 5507 5507 5508 5508 5508 5507 5507 5506 5506 5505 5504 5503 5502 5501 5500 5499 5498 5497 5496 5495 5493 5492 5491 5489 5488 5487
5491 5491 5490 5491 5491 5492 5492 5492 5493 5493 5494 5494 5495 5495 5496 5496 5497 5497 5497 5497 5498 5497 5497 5496 5496 5495 5494 5493 5492 5491 5491 5490 5489 5488 5488 5486 5485 5483 5482 5480 5479 5478 5477
5482 5482 5482 5482 5482 5482 5482 5483 5483 5484 5485 5485 5485 5486 5486 5487 5487 5487 5488 5487 5487 5487 5487 5486 5485 5484 5484 5483 5482 5481 5481 5480 5480 5479 5478 5477 5476 5474 5473 5472 5471 5469 5468